• In Hungary
  • List of Countries
  • For 7 days
  • Water Temperature
  • Satellite Maps
  • Weather Map
  • News
  • Weather Widgets
  • user-avatar
    Login

    Hourly Weather Samarta

    Today, 19 October, Thursday

    Time Temperature Precipitation Wind Pressure Humidity
    00:00 -1°C° 0 mm 1 mps 688 mmHg 93%
    01:00 -1°C° 0 mm 1 mps 687 mmHg 93%
    02:00 -1°C° 0 mm 1 mps 687 mmHg 93%
    03:00 -1°C° 0 mm 1 mps 687 mmHg 93%
    04:00 -1°C° 0 mm 1 mps 687 mmHg 94%
    05:00 -1°C° 0 mm 1 mps 686 mmHg 93%
    06:00 -1°C° 0 mm 1 mps 686 mmHg 92%
    07:00 -1°C° 0 mm 1 mps 686 mmHg 89%
    08:00 -1°C° 0 mm 2 mps 686 mmHg 81%
    09:00 +2°C° 0 mm 2 mps 686 mmHg 73%
    10:00 +3°C° 0 mm 3 mps 686 mmHg 65%
    11:00 +4°C° 0 mm 3 mps 685 mmHg 61%
    12:00 +4°C° 0 mm 3 mps 685 mmHg 57%
    13:00 +5°C° 0 mm 4 mps 684 mmHg 54%
    14:00 +4°C° 0 mm 3 mps 684 mmHg 59%
    15:00 +3°C° 0 mm 3 mps 684 mmHg 64%
    16:00 +3°C° 0 mm 2 mps 684 mmHg 69%
    17:00 +2°C° 0 mm 2 mps 685 mmHg 74%
    18:00 -1°C° 0 mm 2 mps 685 mmHg 79%
    19:00 -2°C° 0 mm 2 mps 685 mmHg 82%
    20:00 -2°C° 0 mm 2 mps 686 mmHg 84%
    21:00 -3°C° 0 mm 2 mps 686 mmHg 86%
    22:00 -2°C° 0 mm 1 mps 686 mmHg 88%
    23:00 -4°C° 0 mm 2 mps 686 mmHg 89%

    Tomorrow, 20 October, Friday

    Time Temperature Precipitation Wind Pressure Humidity
    00:00 -4°C° 0 mm 2 mps 687 mmHg 89%
    01:00 -4°C° 0 mm 2 mps 687 mmHg 90%
    02:00 -4°C° 0 mm 2 mps 687 mmHg 90%
    03:00 -5°C° 0 mm 2 mps 688 mmHg 90%
    04:00 -5°C° 0 mm 2 mps 688 mmHg 89%
    05:00 -5°C° 0 mm 2 mps 688 mmHg 88%
    06:00 -3°C° 0 mm 1 mps 689 mmHg 87%
    07:00 -3°C° 0 mm 1 mps 689 mmHg 85%
    08:00 -1°C° 0 mm 1 mps 690 mmHg 73%
    09:00 0°C° 0 mm 1 mps 690 mmHg 60%
    10:00 +1°C° 0 mm 1 mps 691 mmHg 48%
    11:00 +2°C° 0 mm 1 mps 690 mmHg 44%
    12:00 +3°C° 0 mm 1 mps 690 mmHg 41%
    13:00 +3°C° 0 mm 1 mps 690 mmHg 37%
    14:00 +2°C° 0 mm 1 mps 690 mmHg 41%
    15:00 +2°C° 0 mm 1 mps 690 mmHg 44%
    16:00 0°C° 0 mm 0 mps 690 mmHg 47%
    17:00 0°C° 0 mm 1 mps 690 mmHg 51%
    18:00 -1°C° 0 mm 1 mps 690 mmHg 55%
    19:00 -2°C° 0 mm 1 mps 691 mmHg 58%
    20:00 -2°C° 0 mm 1 mps 691 mmHg 60%
    21:00 -3°C° 0 mm 1 mps 691 mmHg 61%
    22:00 -3°C° 0 mm 1 mps 691 mmHg 62%
    23:00 -3°C° 0 mm 1 mps 691 mmHg 63%

    Day after tomorrow, 21 October, Saturday

    Time Temperature Precipitation Wind Pressure Humidity
    00:00 -3°C° 0 mm 1 mps 691 mmHg 64%
    01:00 -3°C° 0 mm 1 mps 691 mmHg 65%
    02:00 -3°C° 0 mm 1 mps 690 mmHg 67%
    03:00 -4°C° 0 mm 1 mps 690 mmHg 68%
    04:00 -4°C° 0 mm 1 mps 690 mmHg 70%
    05:00 -4°C° 0 mm 1 mps 690 mmHg 70%
    06:00 -4°C° 0 mm 1 mps 690 mmHg 70%
    07:00 -4°C° 0 mm 1 mps 690 mmHg 70%
    08:00 -1°C° 0 mm 1 mps 691 mmHg 60%
    09:00 +1°C° 0 mm 1 mps 691 mmHg 51%
    10:00 +3°C° 0 mm 1 mps 691 mmHg 41%
    11:00 +3°C° 0 mm 0 mps 691 mmHg 38%
    12:00 +4°C° 0 mm 0 mps 690 mmHg 35%
    13:00 +5°C° 0 mm 0 mps 690 mmHg 32%
    14:00 +4°C° 0 mm 0 mps 690 mmHg 36%
    15:00 +2°C° 0 mm 0 mps 690 mmHg 40%
    16:00 +1°C° 0 mm 0 mps 690 mmHg 44%
    17:00 0°C° 0 mm 0 mps 690 mmHg 46%
    18:00 -1°C° 0 mm 0 mps 690 mmHg 49%
    19:00 -2°C° 0 mm 0 mps 691 mmHg 52%
    20:00 -2°C° 0 mm 0 mps 691 mmHg 52%
    21:00 -2°C° 0 mm 0 mps 692 mmHg 53%
    22:00 -2°C° 0 mm 0 mps 692 mmHg 53%
    23:00 -2°C° 0 mm 0 mps 692 mmHg 54%

    22 October, Sunday

    Time Temperature Precipitation Wind Pressure Humidity
    00:00 -3°C° 0 mm 0 mps 692 mmHg 55%
    01:00 -2°C° 0 mm 1 mps 692 mmHg 55%
    02:00 -2°C° 0 mm 1 mps 692 mmHg 56%
    03:00 -2°C° 0 mm 1 mps 692 mmHg 57%
    04:00 -2°C° 0 mm 1 mps 692 mmHg 58%
    05:00 -2°C° 0 mm 1 mps 692 mmHg 58%
    06:00 -2°C° 0 mm 1 mps 692 mmHg 58%
    07:00 -1°C° 0 mm 1 mps 693 mmHg 58%
    08:00 +1°C° 0 mm 1 mps 693 mmHg 53%
    09:00 +3°C° 0 mm 1 mps 693 mmHg 49%
    10:00 +5°C° 0 mm 1 mps 693 mmHg 44%
    11:00 +5°C° 0 mm 2 mps 692 mmHg 46%
    12:00 +6°C° 0 mm 2 mps 692 mmHg 47%
    13:00 +7°C° 0 mm 2 mps 691 mmHg 48%
    14:00 +6°C° 0 mm 2 mps 691 mmHg 55%
    15:00 +6°C° 0 mm 1 mps 690 mmHg 62%
    16:00 +4°C° 0 mm 1 mps 690 mmHg 69%
    17:00 +3°C° 0 mm 1 mps 690 mmHg 73%
    18:00 +2°C° 0 mm 1 mps 690 mmHg 77%
    19:00 +1°C° 0 mm 1 mps 690 mmHg 81%
    20:00 +1°C° 0 mm 1 mps 690 mmHg 82%
    21:00 +1°C° 0 mm 1 mps 690 mmHg 83%
    22:00 +1°C° 0 mm 1 mps 690 mmHg 85%
    23:00 +1°C° 0 mm 1 mps 690 mmHg 85%

    23 October, Monday

    Time Temperature Precipitation Wind Pressure Humidity
    00:00 0°C° 0 mm 1 mps 690 mmHg 85%
    01:00 0°C° 0 mm 1 mps 689 mmHg 86%
    02:00 0°C° 0 mm 1 mps 689 mmHg 85%
    03:00 0°C° 0 mm 1 mps 689 mmHg 85%
    04:00 0°C° 0 mm 1 mps 689 mmHg 84%
    05:00 0°C° 0 mm 1 mps 689 mmHg 83%
    06:00 0°C° 0 mm 1 mps 689 mmHg 81%
    07:00 0°C° 0 mm 1 mps 689 mmHg 79%
    08:00 +3°C° 0 mm 1 mps 688 mmHg 68%
    09:00 +5°C° 0 mm 1 mps 688 mmHg 57%
    10:00 +8°C° 0 mm 1 mps 688 mmHg 47%
    11:00 +7°C° 0 mm 2 mps 688 mmHg 45%
    12:00 +8°C° 0 mm 2 mps 687 mmHg 43%
    13:00 +9°C° 0 mm 2 mps 687 mmHg 41%
    14:00 +7°C° 0 mm 2 mps 687 mmHg 48%
    15:00 +6°C° 0 mm 2 mps 686 mmHg 55%
    16:00 +5°C° 0 mm 1 mps 686 mmHg 63%
    17:00 +4°C° 0 mm 1 mps 687 mmHg 67%
    18:00 +3°C° 0 mm 1 mps 687 mmHg 72%
    19:00 +2°C° 0 mm 1 mps 687 mmHg 76%
    20:00 +1°C° 0 mm 1 mps 688 mmHg 78%
    21:00 +1°C° 0 mm 1 mps 688 mmHg 80%
    22:00 +1°C° 0 mm 1 mps 688 mmHg 82%
    23:00 +1°C° 0 mm 1 mps 688 mmHg 83%

    24 October, Tuesday

    Time Temperature Precipitation Wind Pressure Humidity
    00:00 0°C° 0 mm 1 mps 688 mmHg 84%
    01:00 0°C° 0 mm 1 mps 689 mmHg 85%
    02:00 0°C° 0 mm 1 mps 689 mmHg 86%
    03:00 0°C° 0 mm 1 mps 689 mmHg 86%
    04:00 0°C° 0 mm 1 mps 689 mmHg 87%
    05:00 0°C° 0 mm 1 mps 690 mmHg 86%
    06:00 0°C° 0 mm 1 mps 690 mmHg 86%
    07:00 0°C° 0 mm 1 mps 690 mmHg 85%
    08:00 +2°C° 0 mm 1 mps 691 mmHg 76%
    09:00 +5°C° 0 mm 1 mps 691 mmHg 67%
    10:00 +7°C° 0 mm 1 mps 691 mmHg 58%
    11:00 +8°C° 0 mm 1 mps 690 mmHg 56%
    12:00 +8°C° 0 mm 2 mps 690 mmHg 54%
    13:00 +9°C° 0 mm 2 mps 690 mmHg 52%
    14:00 +8°C° 0 mm 1 mps 690 mmHg 58%
    15:00 +7°C° 0 mm 1 mps 690 mmHg 65%
    16:00 +5°C° 0 mm 1 mps 689 mmHg 71%
    17:00 +4°C° 0 mm 1 mps 690 mmHg 75%
    18:00 +3°C° 0 mm 1 mps 690 mmHg 78%
    19:00 +3°C° 0 mm 1 mps 690 mmHg 81%
    20:00 +2°C° 0 mm 1 mps 690 mmHg 82%
    21:00 +2°C° 0 mm 1 mps 690 mmHg 83%
    22:00 +2°C° 0 mm 1 mps 690 mmHg 84%
    23:00 +1°C° 0 mm 1 mps 690 mmHg 85%
    Show more